Regional Weather Roundup
Issued by NWS

Home | Current Version | Previous Version | Graphics & Text | Print | Product List | Glossary On
Versions: 1 2 3 4 5 6 7 8 9 10 11 12 13 14 15 16 17 18 19 20 21 22 23 24 25
000
ASUS45 KPSR 170310
RWRAZ

ARIZONA HOURLY REGIONAL WEATHER ROUNDUP
NATIONAL WEATHER SERVICE PHOENIX AZ
800 PM MST FRI FEB 16 2018

NOTE: FAIR INDICATES FEW OR NO CLOUDS BELOW 12,000 FEET WITH NO
SIGNIFICANT WEATHER AND/OR OBSTRUCTIONS TO VISIBILITY.

AZZ001>003-036-170400-
NORTHWEST ARIZONA

CITY           SKY/WX    TMP DP  RH WIND       PRES   REMARKS
BULLHEAD CITY  CLEAR     59  14  17 NE12      30.11R
KINGMAN        CLEAR     41  27  57 E3        30.14R
$$

AZZ004>008-015-016-018-170400-
NORTH CENTRAL ARIZONA

CITY           SKY/WX    TMP DP  RH WIND       PRES   REMARKS
GRAND CANYON   CLEAR     27  22  81 CALM      30.16S
WILLIAMS       PTCLDY    32  25  74 S8        30.14F WCI  25
PRESCOTT       MOCLDY    45  32  60 W5        30.14R
FLAGSTAFF      MOCLDY    32  28  85 CALM      30.17R
PAYSON         CLOUDY    45  39  81 CALM      30.14R
PAGE           CLEAR     40  19  43 CALM      30.14R
$$

AZZ009>014-017-170400-
NORTHEAST ARIZONA

CITY           SKY/WX    TMP DP  RH WIND       PRES   REMARKS
WINSLOW        CLOUDY    37  20  50 W3        30.15R
SAINT JOHNS    CLOUDY    41  36  82 CALM      30.14R
WINDOW ROCK    MOCLDY    37  28  70 CALM      30.15R
SHOW LOW       CLOUDY    37  34  87 CALM      30.18R
$$

AZZ540-542>544-546-548-170400-
GREATER PHOENIX AREA

CITY           SKY/WX    TMP DP  RH WIND       PRES   REMARKS
PHOENIX        CLOUDY    63  45  51 SW5       30.07R
BUCKEYE        CLOUDY    59  48  67 S3        30.09R
GLENDALE       CLOUDY    63  45  51 CALM      30.09R
LUKE AFB       CLOUDY    61  45  56 S7        30.06R
DEER VALLEY    CLOUDY    60  44  55 SW5       30.08R
SCOTTSDALE     CLOUDY    61  43  51 CALM      30.09R
MESA-FALCON    CLOUDY    61  46  59 S6        30.09
MESA-GATEWAY   MOCLDY    59  52  77 SW5       30.10R
CHANDLER       MOCLDY    61  52  72 S7        30.09R
$$

AZZ539-553-170400-
SOUTHWEST MARICOPA COUNTY AND PINAL COUNTY

CITY           SKY/WX    TMP DP  RH WIND       PRES   REMARKS
CASA GRANDE      N/A     57  54  89 CALM      30.10R
GILA BEND      CLOUDY    59  51  75 S3        30.08R
$$

AZZ503-504-507>509-170400-
SOUTHEAST ARIZONA

CITY           SKY/WX    TMP DP  RH WIND       PRES   REMARKS
TUCSON         LGT RAIN  58  56  93 CALM      30.12R
DAVIS-MONTHAN  LGT RAIN  57  57 100 SE3       30.11R
RYAN FIELD     LGT RAIN  57  55  94 CALM      30.13R FOG
NOGALES        LGT RAIN  52  51  97 E5        30.14R
SIERRA VISTA   CLOUDY    50  48  94 SW8       30.17R
DOUGLAS        CLOUDY    53  52  96 NW5       30.14R
SAFFORD        CLOUDY    54  53  97 SW5       30.10R
$$

AZZ532-170400-
SOUTHWEST ARIZONA

CITY           SKY/WX    TMP DP  RH WIND       PRES   REMARKS
YUMA           PTCLDY    64  25  22 N6        30.09R
$$

CAZ041-043-047-048-061-525>527-560>570-170400-
SOUTHERN CALIFORNIA

CITY           SKY/WX    TMP DP  RH WIND       PRES   REMARKS
DOWNTOWN L.A.  CLEAR     62  44  51 CALM      30.08R
L.A. AIRPORT   CLEAR     62  47  57 SW10      30.09R
SAN DIEGO      PTCLDY    65  36  34 N7        30.10R
BURBANK        CLEAR     64  30  27 E6        30.08R
ONTARIO        CLEAR     62  23  22 SW5       30.08R
RIVERSIDE      CLEAR     63   9  12 SW6       30.08R
PALM SPRINGS   CLEAR     67  15  13 NW3       30.11R
EL CENTRO NAS  CLEAR     61  26  26 S5        30.11R
IMPERIAL       CLEAR     61  27  27 CALM      30.08R
BLYTHE         CLEAR     60  17  18 N8        30.09R
NEEDLES        CLEAR     59  15  18 NW7       30.11S
$$

NVZ020-UTZ003-170400-
SOUTHERN NEVADA-UTAH

CITY           SKY/WX    TMP DP  RH WIND       PRES   REMARKS
LAS VEGAS      PTCLDY    55  10  16 CALM      30.14R
SALT LAKE CITY CLOUDY    41  14  33 N3        30.14R
$$

NMZ009-TXZ055-170400-
NEW MEXICO-WEST TEXAS

CITY           SKY/WX    TMP DP  RH WIND       PRES   REMARKS
ALBUQUERQUE    CLOUDY    43  35  73 S5        30.11S
EL PASO        LGT RAIN  51  50  96 N13       30.11R
$$


........................KEY........................
SKY/WX - SKY CONDITION/WEATHER
TMP    - TEMPERATURE IN FAHRENHEIT
DP     - DEW POINT IN FAHRENHEIT
RH     - RELATIVE HUMIDITY IN PERCENT
WIND   - DIRECTION AND SPEED IN MILES PER HOUR (MPH)
VRB    - VARIABLE WIND DIRECTION
PRES   - MEAN SEA LEVEL PRESSURE IN INCHES OF MERCURY
         F - FALLING PRESSURE   R - RISING PRESSURE
         S - STEADY PRESSURE
VSB    - VISIBILITY IN MILES
HX     - HEAT INDEX IN FAHRENHEIT
WCI    - WIND CHILL INDEX IN FAHRENHEIT
TC     - TEMPERATURE IN CELSIUS WHICH IS ALSO KNOWN AS
         TEMPERATURE IN CENTIGRADE
AFB    - AIR FORCE BASE
         LUKE AFB IS LUKE AIR FORCE BASE
         DAVIS-MONTHAN IS DAVIS-MONTHAN AIR FORCE BASE
NAS    - NAVAL AIR STATION
         EL CENTRO NAS IS EL CENTRO NAVAL AIR STATION
N/A    - NOT AVAILABLE





USA.gov is the U.S. government's official web portal to all federal, state and local government web resources and services.